This is the latest recevied weather packets stored in our database for station/object VK2BLR. If no packets are shown the sender has not sent any weather packets the latest 10 day(s).
| Time | Temp. | Humidity | Pressure | Rain* | Wind** | Luminosity | Snow |
|---|---|---|---|---|---|---|---|
| 1778018914 | 14.44° C | 71% | 1018.4 hPa | 0 mm | - | - | - |
| 1778018014 | 12.22° C | 83% | 1018.3 hPa | 0 mm | - | - | - |
| 1778017112 | 9.44° C | 88% | 1018.1 hPa | 0 mm | - | - | - |
| 1778016214 | 7.22° C | 89% | 1017.9 hPa | 0 mm | - | - | - |
| 1778015313 | 6.67° C | 89% | 1018 hPa | 0 mm | - | - | - |
| 1778014413 | 6.67° C | 88% | 1017.8 hPa | 0 mm | - | - | - |
| 1778013512 | 6.67° C | 88% | 1017.7 hPa | 0 mm | - | - | - |
| 1778012614 | 6.67° C | 89% | 1017.6 hPa | 0 mm | - | - | - |
| 1778011714 | 6.67° C | 89% | 1017.6 hPa | 0 mm | - | - | - |
| 1778010813 | 6.67° C | 88% | 1017.7 hPa | 0 mm | - | - | - |
| 1778009913 | 7.22° C | 88% | 1017.6 hPa | 0 mm | - | - | - |
| 1778009014 | 7.22° C | 88% | 1017.7 hPa | 0 mm | - | - | - |
| 1778008113 | 7.22° C | 88% | 1017.7 hPa | 0 mm | - | - | - |
| 1778007212 | 7.22° C | 88% | 1017.9 hPa | 0 mm | - | - | - |
| 1778006313 | 7.22° C | 86% | 1017.8 hPa | 0 mm | - | - | - |
| 1778005414 | 7.78° C | 82% | 1017.8 hPa | 0 mm | - | - | - |
| 1778004513 | 7.78° C | 82% | 1017.7 hPa | 0 mm | - | - | - |
| 1778003613 | 7.78° C | 82% | 1017.8 hPa | 0 mm | - | - | - |
| 1778002713 | 7.78° C | 82% | 1017.9 hPa | 0 mm | - | - | - |
| 1778001813 | 7.78° C | 82% | 1018 hPa | 0 mm | - | - | - |
| 1778000914 | 8.33° C | 82% | 1018.3 hPa | 0 mm | - | - | - |
| 1778000014 | 8.33° C | 82% | 1018.3 hPa | 0 mm | - | - | - |
| 1777999114 | 8.33° C | 82% | 1018.4 hPa | 0 mm | - | - | - |
| 1777998212 | 8.33° C | 82% | 1018.5 hPa | 0 mm | - | - | - |
| 1777997312 | 8.33° C | 82% | 1018.8 hPa | 0 mm | - | - | - |
* Rain latest hour (hover to see other rain measurements)
** Current wind speed in m/s (hover to see current wind gust speed)